Flag for Micronesia Weather past 2 weeks in Kolonia, Ponape, Micronesia

Now
79 °F

Sprinkles. Mostly cloudy.


Feels Like: 83 °F
Forecast: 74 / 85 °F
Wind: 10 mph from West

Location: Pohnpei

Current Time: Oct 3, 2014 at 1:58:03 AM

Latest Report: Oct 3, 2014 at 12:53 AM


Visibility: 12 mi

Pressure: 29.77 "Hg

Humidity: 91%

Dew point: 76 °F

Location of KoloniaLocation

Historic Weather in Kolonia — Graph

°F

Kolonia temperature yesterday

Maximum temperature yesterday: 79 °F (at 7:52 AM)
Minimum temperature yesterday: 74 °F (at 7:54 PM)
Average temperature yesterday: 77 °F

Past Weeks' High & Low Weather Summary

 TemperatureHumidityPressure
High91 °F (Sep 25, 1:50 PM)99% (Sep 27, 6:53 AM)29.93 "Hg (Sep 27, 6:53 AM)
Low74 °F (Oct 1, 3:57 AM)61% (Sep 24, 12:56 PM)29.72 "Hg (Sep 28, 3:54 PM)
Average80 °F88%29.82 "Hg
* Reported Sep 18 12:50 AM — Oct 3 12:53 AM, Kolonia, Weather by CustomWeather, © 2014

Note: Actual official high and low records may vary slightly from our data, if they occured in-between our weather recording intervals... More about our weather records

Advertising

Kolonia weather history for previous 24 hours

 ConditionsComfort  
Time TempWeatherWind HumidityBarometerVisibility
12:53 AM
Oct 3
79 °FSprinkles. Mostly cloudy.10 mph91%29.77 "Hg12 mi
11:50 PM
Oct 2
79 °FMostly cloudy.8 mph87%29.78 "Hg15 mi
10:51 PM79 °FMostly cloudy.10 mph89%29.80 "Hg15 mi
9:50 PM79 °FMostly cloudy.9 mph88%29.82 "Hg15 mi
8:55 PM78 °FMostly cloudy.7 mph90%29.81 "Hg15 mi
7:54 PM74 °FSprinkles. Mostly cloudy.8 mph96%29.77 "Hg13 mi
6:51 PM75 °FSprinkles. Mostly cloudy.6 mph98%29.78 "Hg10 mi
5:50 PM76 °FSprinkles. Mostly cloudy.9 mph95%29.80 "Hg10 mi
4:54 PM77 °FSprinkles. Mostly cloudy.3 mph97%29.78 "Hg11 mi
3:55 PM78 °FSprinkles. Overcast.6 mph97%29.76 "Hg10 mi
2:57 PM77 °FSprinkles. Mostly cloudy.6 mph94%29.75 "Hg10 mi
1:54 PM76 °FSprinkles. Mostly cloudy.6 mph98%29.78 "Hg10 mi
12:50 PM75 °FSprinkles. Mostly cloudy.3 mph96%29.82 "Hg10 mi
11:51 AM76 °FSprinkles. Overcast.6 mph97%29.83 "Hg3 mi
10:56 AM78 °FThunderstorms. Overcast.6 mph99%29.87 "Hg3 mi
9:56 AM79 °FSprinkles. Overcast.5 mph94%29.81 "Hg12 mi
8:53 AM79 °FSprinkles. Mostly cloudy.5 mph96%29.80 "Hg12 mi
7:52 AM79 °FSprinkles. Mostly cloudy.3 mph96%29.79 "Hg12 mi
6:53 AM78 °FMostly cloudy.3 mph95%29.78 "Hg15 mi
5:50 AM78 °FSprinkles. Mostly cloudy.7 mph95%29.76 "Hg12 mi
3:53 AM77 °FSprinkles. Mostly cloudy.7 mph91%29.78 "Hg12 mi
2:53 AM77 °FMostly cloudy.3 mph95%29.78 "Hg15 mi
1:52 AM78 °FMostly cloudy.3 mph95%29.77 "Hg15 mi
Weather by CustomWeather, © 2014

See weather overviewHow to use our weather pages